Weather History for Sussex, NJ

Change the Weather History Date:

Monday, September 30, 2013

  Actual Average Record
Temperature  
Mean Temperature 58 °F -  
Max Temperature 73 °F 67 °F 84 °F (1953)
Min Temperature 46 °F 42 °F 30 °F (1951)
Degree Days  
Heating Degree Days 6    
Growing Degree Days 8 (Base 50)    
Moisture  
Dew Point 48 °F    
Average Humidity 89    
Maximum Humidity 100    
Minimum Humidity 44    
Precipitation  
Precipitation 0.01 in - - ()
Sea Level Pressure  
Sea Level Pressure 30.06 in    
Wind  
Wind Speed 0 mph (South)    
Max Wind Speed 5 mph    
Max Gust Speed -    
Visibility 5 miles    
Events Fog    
Averages and records for this station are not official NWS values.
T = Trace of Precipitation, MM = Missing Value Source: NWS Daily Summary

Daily Weather History Graph

Daily Weather History Graph

Search for Another Location

Airport:

Trip Planner

Search our weather history database for the weather conditions in past years. The results will help you decide how hot, cold, wet, or windy it might be!

Date:

Astronomy

Sep. 30, 2013 Rise Set
Actual Time 6:54 AM EDT 6:41 PM EDT
Civil Twilight 6:26 AM EDT 7:09 PM EDT
Nautical Twilight 5:54 AM EDT 7:41 PM EDT
Astronomical Twilight 5:22 AM EDT 8:13 PM EDT
Moon 2:26 AM EDT (9/30) 4:12 PM EDT (9/30)
Length of Visible Light 12h 42m
Length of Day
11h 47m
Waning Crescent, 19% of the Moon is Illuminated
Sep 30
Waning Crescent
Oct 4
New
Oct 11
First Quarter
Oct 18
Full
Oct 26
Last Quarter

Hourly Weather History & Observations

Time (EDT) Temp. Dew Point Humidity Pressure Visibility Wind Dir Wind Speed Gust Speed Precip Events Conditions
12:31 AM 48.2 °F 46.4 °F 93% 30.10 in 5.0 mi Calm Calm - N/A   Partly Cloudy
12:53 AM 48.0 °F 46.9 °F 96% 30.10 in 2.0 mi Calm Calm - N/A   Mostly Cloudy
12:55 AM 46.4 °F 46.4 °F 100% 30.10 in 1.2 mi Calm Calm - N/A   Mostly Cloudy
1:03 AM 48.2 °F 46.4 °F 93% 30.10 in 0.5 mi Calm Calm - N/A Fog Fog
1:08 AM 48.2 °F 46.4 °F 93% 30.10 in 2.0 mi Calm Calm - N/A   Mostly Cloudy
1:17 AM 46.4 °F 46.4 °F 100% 30.10 in 0.8 mi Calm Calm - N/A   Overcast
1:44 AM 46.4 °F 46.4 °F 100% 30.10 in 1.5 mi Calm Calm - N/A   Overcast
1:49 AM 46.4 °F 46.4 °F 100% 30.10 in 4.0 mi Calm Calm - N/A   Overcast
1:53 AM 46.9 °F 46.9 °F 100% 30.10 in 7.0 mi Calm Calm - N/A   Overcast
2:53 AM 46.9 °F 46.9 °F 100% 30.09 in 3.0 mi Calm Calm - N/A   Overcast
3:00 AM 46.4 °F 46.4 °F 100% 30.09 in 2.0 mi Calm Calm - N/A   Mostly Cloudy
3:04 AM 46.4 °F 46.4 °F 100% 30.08 in 1.2 mi Calm Calm - N/A   Mostly Cloudy
3:12 AM 46.4 °F 46.4 °F 100% 30.08 in 0.2 mi Calm Calm - N/A Fog Fog
3:53 AM 46.9 °F 46.9 °F 100% 30.08 in 0.2 mi Calm Calm - N/A Fog Fog
4:53 AM 46.0 °F 46.0 °F 100% 30.08 in 0.2 mi Calm Calm - N/A Fog Fog
5:53 AM 46.0 °F 46.0 °F 100% 30.09 in 0.8 mi Calm Calm - 0.01 in   Overcast
6:53 AM 46.0 °F 46.0 °F 100% 30.11 in 0.2 mi Calm Calm - N/A Fog Fog
7:53 AM 46.0 °F 46.0 °F 100% 30.11 in 0.2 mi Calm Calm - N/A Fog Fog
8:53 AM 46.9 °F 46.9 °F 100% 30.10 in 0.2 mi Calm Calm - N/A Fog Fog
9:18 AM 50.0 °F 50.0 °F 100% 30.10 in 1.8 mi Calm Calm - N/A   Overcast
9:21 AM 48.2 °F 48.2 °F 100% 30.10 in 3.0 mi Calm Calm - N/A   Overcast
9:48 AM 51.8 °F 51.8 °F 100% 30.09 in 10.0 mi Calm Calm - N/A   Scattered Clouds
9:53 AM 53.1 °F 53.1 °F 100% 30.09 in 10.0 mi Calm Calm - N/A   Partly Cloudy
10:53 AM 62.1 °F 54.0 °F 75% 30.07 in 10.0 mi Calm Calm - N/A   Clear
11:53 AM 70.0 °F 54.0 °F 57% 30.05 in 10.0 mi Variable 3.5 mph - N/A   Partly Cloudy
12:53 PM 69.1 °F 48.9 °F 49% 30.03 in 10.0 mi SE 4.6 mph - N/A   Partly Cloudy
1:53 PM 70.0 °F 48.0 °F 46% 30.01 in 10.0 mi Calm Calm - N/A   Scattered Clouds
2:53 PM 71.1 °F 48.0 °F 44% 30.01 in 10.0 mi Calm Calm - N/A   Clear
3:53 PM 71.1 °F 48.9 °F 45% 29.99 in 10.0 mi SSW 3.5 mph - 0.00 in   Clear
4:53 PM 68.0 °F 53.1 °F 59% 29.99 in 10.0 mi Calm Calm - N/A   Clear
5:53 PM 68.0 °F 54.0 °F 61% 29.99 in 10.0 mi Calm Calm - 0.00 in   Clear
6:53 PM 59.0 °F 54.0 °F 83% 29.99 in 10.0 mi Calm Calm - N/A   Clear
7:53 PM 55.9 °F 53.1 °F 90% 30.01 in 10.0 mi Calm Calm - N/A   Clear
8:53 PM 52.0 °F 50.0 °F 93% 30.01 in 9.0 mi Calm Calm - N/A   Clear
9:53 PM 50.0 °F 50.0 °F 100% 30.01 in 9.0 mi Calm Calm - N/A   Clear
10:47 PM 48.2 °F 48.2 °F 100% 30.02 in 1.8 mi Calm Calm - N/A   Clear
10:53 PM 48.9 °F 48.0 °F 97% 30.02 in 4.0 mi Calm Calm - N/A   Clear
11:31 PM 48.2 °F 48.2 °F 100% 30.01 in 1.8 mi Calm Calm - N/A   Clear
11:42 PM 46.4 °F 46.4 °F 100% 30.01 in 3.0 mi Calm Calm - N/A   Clear
11:53 PM 48.0 °F 46.9 °F 96% 30.01 in 9.0 mi Calm Calm - N/A   Clear